Regional Weather Roundup
Issued by NWS Cleveland, OH

Home | Current Version | Previous Version | Graphics & Text | Print | Product List | Glossary On
Versions: 1 2 3 4 5 6 7 8 9 10 11 12 13 14 15 16 17 18 19 20 21 22 23 24 25 26 27 28 29 30 31 32 33 34 35 36 37 38 39 40 41 42 43 44 45 46 47 48 49 50
000
ASUS41 KCLE 230802
RWRCLE
OHIO REGIONAL WEATHER ROUNDUP
NATIONAL WEATHER SERVICE CLEVELAND, OH
400 AM EDT SAT MAY 23 2015

NOTE: "FAIR" INDICATES FEW OR NO CLOUDS BELOW 12,000 FEET WITH NO
SIGNIFICANT WEATHER AND/OR OBSTRUCTIONS TO VISIBILITY.

OHZ001>008-015>018-024>027-034-035-043-044-230900-
   NORTHWEST OHIO

CITY           SKY/WX    TMP DP  RH WIND       PRES   REMARKS
DEFIANCE       MOCLDY    47  39  74 CALM      30.32R
FINDLAY        MOCLDY    50  37  61 SE3       30.31R
TOLEDO EXPRESS MOCLDY    47  41  80 NE3       30.33R
TOLEDO EXEC    MOCLDY    51  45  79 NE3       30.34R
LIMA           MOCLDY    48  36  63 E3        30.32R
$$

OHZ009>014-019>023-028>033-038-089-230900-
   NORTHEAST OHIO

CITY           SKY/WX    TMP DP  RH WIND       PRES   REMARKS
CLE-HOPKINS    MOCLDY    43  32  65 CALM      30.36S
CLE-LAKEFRONT  PTCLDY    47  29  49 SE9       30.34R
CUY CO. ARPT   NOT AVBL
LORAIN-ELYRIA  MOCLDY    42  35  76 E3        30.34S
ASHTABULA      CLEAR     34  32  92 CALM      30.35S
AKRON-CANTON   PTCLDY    45  30  55 SE3       30.34R
WOOSTER        PTCLDY    39  33  79 CALM      30.34R
MANSFIELD      PTCLDY    44  34  67 SE5       30.32S
YOUNGSTOWN     PTCLDY    33  30  88 CALM      30.34R
$$

OHZ042-051>053-060>062-070>072-077>081-230900-
  SOUTHWEST OHIO

CITY           SKY/WX    TMP DP  RH WIND       PRES   REMARKS
CINC-COVINGTON MOCLDY    53  47  79 CALM      30.29S
CINC-LUNKEN    CLEAR     47  47 100 CALM      30.31S FOG
HAMILTON       PTCLDY    47  46  97 CALM      30.31S
DAYTON         PTCLDY    52  38  58 E8        30.32R
WRIGHT-PAT AFB CLEAR     47  44  90 N2        30.32R
DAYTON GENERAL CLEAR     52  41  66 E7        30.30R
WILMINGTON     CLEAR     52  39  61 E5        30.31R
$$

OHZ036-037-039>041-045>050-054>059-063>069-073>076-082>088-230900-
  CENTRAL AND SOUTHEAST OHIO

CITY           SKY/WX    TMP DP  RH WIND       PRES   REMARKS
COLUMBUS       PTCLDY    52  34  50 CALM      30.32R
OSU AIRPORT    PTCLDY    48  34  58 CALM      30.32R
BOLTON FIELD   NOT AVBL
RICKENBACK AFB NOT AVBL
NEWARK         CLEAR     43  40  89 CALM      30.33R
MARION         MOCLDY    47  35  63 S5        30.33R
LANCASTER      CLEAR     45  39  79 CALM      30.33R
ZANESVILLE     CLEAR     42  37  82 CALM      30.33R
NEW PHILLY     CLEAR     42  36  79 CALM      30.34S
$$


USA.gov is the U.S. government's official web portal to all federal, state and local government web resources and services.